Stations météo

Publicité
Strasbourg, France (7190): Température de l'air & dewpoint: 16.08.2018 01:00:00 - 22.08.2018 01:00:00 (CEST)Strasbourg, France (7190): Température de l'air 5cm: 16.08.2018 01:00:00 - 22.08.2018 01:00:00 (CEST)Strasbourg, France (7190): Température de l'air -20cm & Température de l'air -100cm: 16.08.2018 01:00:00 - 22.08.2018 01:00:00 (CEST)Strasbourg, France (7190): Vitesse du vent & gusts: 16.08.2018 01:00:00 - 22.08.2018 01:00:00 (CEST)Strasbourg, France (7190): Direction du vent: 16.08.2018 01:00:00 - 22.08.2018 01:00:00 (CEST)Strasbourg, France (7190): reduced air pressure: 16.08.2018 01:00:00 - 22.08.2018 01:00:00 (CEST)Strasbourg, France (7190): visibility: 16.08.2018 01:00:00 - 22.08.2018 01:00:00 (CEST)Strasbourg, France (7190): Ensoleillement: 16.08.2018 01:00:00 - 22.08.2018 01:00:00 (CEST)Strasbourg, France (7190): Quantités de précipitations: 16.08.2018 01:00:00 - 22.08.2018 01:00:00 (CEST)
Date & Time tt [°C] td [°C] tt 5cm [°C] tt -20cm [°C] tt -100cm [°C] ff [km/h] ff [knt] fx [km/h] fx [knt] dd ppp [hPa] vv [km] sd [min] rr [mm]
22.08.2018 01:00:00 20,0 15,8 19,0 27,4 22,7 8 5 10 6 NW 1017,4 38 0 0,0
22.08.2018 00:00:00 20,7 16,1 19,5 27,7 22,7 6 4 11 6 NW 1017,3 40 0 0,0
21.08.2018 23:00:00 21,3 16,7 20,4 28,0 22,7 4 2 10 5 N 1017,4 41 0 0,0
21.08.2018 22:00:00 22,9 16,7 21,9 28,2 22,7 4 2 8 4 N 1017,1 44 0 0,0
21.08.2018 21:00:00 25,9 16,4 23,5 28,3 22,7 6 4 16 9 NNE 1016,3 7 5 0,0
21.08.2018 20:00:00 28,8 15,7 28,7 28,2 22,7 12 7 17 9 NE 1016,0 48 60 0,0
21.08.2018 19:00:00 30,1 14,6 30,0 28,0 22,7 13 7 22 12 NNE 1015,6 48 60 0,0
21.08.2018 18:00:00 30,8 14,8 34,9 27,6 22,7 13 7 26 14 N 1015,7 43 60 0,0
21.08.2018 17:00:00 31,0 15,8 36,0 27,1 22,7 10 5 21 12 NNW 1016,2 53 60 0,0
21.08.2018 16:00:00 30,7 16,3 32,4 26,4 22,6 6 4 21 12 NNE 1016,7 38 56 0,0
21.08.2018 15:00:00 30,1 16,5 35,3 25,8 22,7 4 2 22 12 NW 1017,3 33 60 0,0
21.08.2018 14:00:00 28,9 15,8 34,2 25,2 22,7 9 5 21 11 NNE 1018,0 41 60 0,0
21.08.2018 13:00:00 28,7 16,6 32,9 24,8 22,7 9 5 20 11 ENE 1018,5 39 60 0,0
21.08.2018 12:00:00 26,9 16,8 31,3 24,4 22,6 10 5 24 13 NE 1019,0 31 60 0,0
21.08.2018 11:00:00 25,4 16,5 29,1 24,3 22,7 9 5 19 11 NNE 1019,4 20 60 0,0
21.08.2018 10:00:00 23,3 16,6 26,7 24,3 22,6 10 6 21 12 N 1019,7 29 60 0,0
21.08.2018 09:00:00 22,1 16,1 23,7 24,5 22,7 11 6 18 10 N 1019,7 30 60 0,0
21.08.2018 08:00:00 20,1 16,1 17,8 24,7 22,6 9 5 14 8 NNW 1019,7 29 60 0,0
21.08.2018 07:00:00 17,3 15,1 16,4 24,9 22,7 7 4 13 7 NNW 1019,7 37 5 0,0
21.08.2018 06:00:00 17,4 15,0 16,6 25,2 22,7 8 4 12 6 NW 1019,6 48 0 0,0
21.08.2018 05:00:00 17,5 15,1 16,9 25,5 22,7 8 4 11 6 NNW 1019,6 54 0 0,0
21.08.2018 04:00:00 18,1 15,4 17,4 25,7 22,6 10 5 13 7 NNW 1019,6 59 0 0,0
21.08.2018 03:00:00 19,0 15,7 18,0 26,0 22,7 8 4 13 7 NNW 1019,8 59 0 0,0
21.08.2018 02:00:00 20,2 16,0 19,3 26,3 22,6 8 5 16 9 N 1019,9 60 0 0,0
21.08.2018 01:00:00 21,4 15,7 20,5 26,6 22,6 11 6 18 10 WNW 1019,7 60 0 0,0
21.08.2018 00:00:00 21,5 15,6 20,5 26,8 22,6 10 5 17 9 WNW 1019,6 49 0 0,0
20.08.2018 23:00:00 22,0 15,4 20,6 27,1 22,7 8 4 17 9 WNW 1019,4 60 0 0,0
20.08.2018 22:00:00 22,3 15,6 21,5 27,3 22,7 11 6 31 17 NW 1018,9 59 0 0,0
20.08.2018 21:00:00 23,7 15,7 22,8 27,5 22,7 9 5 19 11 NW 1018,5 60 7 0,0
20.08.2018 20:00:00 26,3 15,7 27,0 27,4 22,6 13 7 30 16 NNW 1017,8 55 60 0,0
20.08.2018 19:00:00 27,7 16,0 28,0 27,3 22,7 18 10 39 21 NNW 1017,5 51 60 0,0
20.08.2018 18:00:00 28,8 16,0 32,6 27,0 22,7 18 10 30 16 NNW 1017,7 53 60 0,0
20.08.2018 17:00:00 29,0 16,2 30,4 26,5 22,6 21 11 41 22 NNW 1017,8 21 40 0,0
20.08.2018 16:00:00 29,8 15,9 30,7 26,0 22,6 16 9 34 18 N 1017,9 48 41 0,0
20.08.2018 15:00:00 29,8 15,9 32,3 25,3 22,6 6 3 27 14 NNE 1018,1 20 54 0,0
20.08.2018 14:00:00 28,8 15,7 34,0 24,7 22,6 7 4 21 12 NE 1018,7 37 60 0,0
20.08.2018 13:00:00 27,7 15,4 32,1 24,2 22,7 10 5 23 12 NE 1019,5 51 60 0,0
20.08.2018 12:00:00 26,6 15,0 31,5 23,9 22,6 13 7 22 12 NNE 1020,0 42 60 0,0
20.08.2018 11:00:00 25,4 15,1 30,3 23,8 22,7 4 2 16 9 ENE 1020,1 43 60 0,0
20.08.2018 10:00:00 23,9 15,1 26,3 23,7 22,6 4 2 9 5 SSE 1020,2 38 60 0,0
20.08.2018 09:00:00 21,9 15,3 22,1 23,9 22,6 2 1 7 4 E 1020,1 36 60 0,0
20.08.2018 08:00:00 18,2 14,5 16,4 24,2 22,6 3 2 7 4 SW 1020,1 21 60 0,0
20.08.2018 07:00:00 15,7 13,2 13,7 24,4 22,6 3 1 6 3 SSW 1020,0 35 6 0,0
20.08.2018 06:00:00 15,9 13,2 14,1 24,7 22,6 4 2 9 5 SSW 1020,0 38 0 0,0
20.08.2018 05:00:00 16,4 13,5 14,8 25,1 22,6 6 3 9 5 SW 1020,2 42 0 0,0
20.08.2018 04:00:00 16,9 13,6 14,7 25,4 22,7 3 2 6 4 S 1020,1 41 0 0,0
20.08.2018 03:00:00 17,3 13,2 15,0 25,7 22,7 2 1 5 3 S 1020,1 42 0 0,0
20.08.2018 02:00:00 18,3 13,6 16,4 26,0 22,7 3 1 6 3 NNW 1020,2 54 0 0,0
20.08.2018 01:00:00 20,1 13,1 16,8 26,4 22,7 5 3 8 4 NNW 1020,2 60 0 0,0
20.08.2018 00:00:00 18,5 14,4 17,7 26,7 22,7 7 4 10 5 NW 1020,2 60 0 0,0
19.08.2018 23:00:00 20,4 14,5 18,4 27,0 22,7 3 1 8 4 W 1019,8 60 0 0,0
19.08.2018 22:00:00 22,1 12,6 19,3 27,2 22,7 3 2 11 6 W 1019,3 58 0 0,0
19.08.2018 21:00:00 24,1 12,7 22,5 27,3 22,7 8 4 17 9 NNW 1018,8 60 12 0,0
19.08.2018 20:00:00 27,7 12,9 28,4 27,2 22,7 10 5 17 9 N 1018,2 58 60 0,0
19.08.2018 19:00:00 29,3 12,7 29,6 26,9 22,7 8 5 19 10 N 1018,0 56 60 0,0
19.08.2018 18:00:00 30,5 13,3 35,1 26,5 22,7 5 3 18 10 NNW 1018,3 55 60 0,0
19.08.2018 17:00:00 30,2 12,6 34,5 25,8 22,7 8 4 21 11 N 1018,6 58 60 0,0
19.08.2018 16:00:00 29,6 12,1 35,3 25,2 22,7 6 3 20 11 ESE 1019,2 57 60 0,0
19.08.2018 15:00:00 29,1 12,5 34,4 24,5 22,7 6 3 21 11 NW 1019,8 20 60 0,0
19.08.2018 14:00:00 28,4 11,9 33,1 24,0 22,7 9 5 26 14 NE 1020,5 18 60 0,0
19.08.2018 13:00:00 27,5 12,7 32,0 23,5 22,7 11 6 21 12 NE 1021,0 18 60 0,0
19.08.2018 12:00:00 25,6 10,6 28,8 23,3 22,7 10 5 21 11 N 1021,8 19 53 0,0
19.08.2018 11:00:00 23,1 12,1 24,0 23,2 22,7 9 5 15 8 NNW 1022,3 56 14 0,0
19.08.2018 10:00:00 21,2 12,9 21,3 23,3 22,7 3 2 9 5 WNW 1022,4 58 0 0,0
19.08.2018 09:00:00 19,8 12,1 20,8 23,4 22,7 6 4 9 5 NNW 1022,3 60 14 0,0
19.08.2018 08:00:00 18,5 12,9 16,7 23,6 22,7 3 1 6 3 E 1022,2 52 18 0,0
19.08.2018 07:00:00 17,1 13,2 15,7 23,8 22,7 3 2 6 3 ESE 1022,1 57 0 0,0
19.08.2018 06:00:00 16,0 12,0 14,5 24,0 22,7 4 2 12 6 S 1022,0 57 0 0,0
19.08.2018 05:00:00 17,2 11,2 16,0 24,3 22,7 6 3 9 5 WNW 1022,0 60 0 0,0
19.08.2018 04:00:00 18,1 10,9 16,3 24,6 22,7 3 1 9 5 NE 1022,1 60 0 0,0
19.08.2018 03:00:00 18,4 10,5 17,0 24,9 22,7 9 5 14 8 WNW 1021,9 60 0 0,0
19.08.2018 02:00:00 18,6 10,7 17,1 25,2 22,7 8 5 19 10 WNW 1021,9 60 0 0,0
19.08.2018 01:00:00 19,3 10,6 18,4 25,5 22,8 9 5 16 9 WNW 1022,0 60 0 0,0
19.08.2018 00:00:00 21,0 10,2 20,0 25,8 22,7 8 4 19 10 WNW 1021,9 60 0 0,0
18.08.2018 23:00:00 20,6 11,5 19,8 26,1 22,7 8 4 14 8 WNW 1021,9 59 0 0,0
18.08.2018 22:00:00 21,0 12,7 20,0 26,3 22,8 9 5 16 9 NNW 1021,5 59 0 0,0
18.08.2018 21:00:00 22,5 13,0 21,5 26,4 22,8 10 5 14 8 NNW 1020,8 53 14 0,0
18.08.2018 20:00:00 25,7 12,5 26,2 26,4 22,8 9 5 19 11 N 1020,0 55 60 0,0
18.08.2018 19:00:00 27,2 12,0 27,9 26,1 22,8 11 6 21 12 N 1019,6 48 60 0,0
18.08.2018 18:00:00 28,1 12,4 33,1 25,7 22,8 10 6 22 12 N 1019,7 36 60 0,0
18.08.2018 17:00:00 27,9 13,0 33,2 25,1 22,7 10 5 24 13 NNE 1019,9 28 60 0,0
18.08.2018 16:00:00 27,7 14,7 30,7 24,5 22,8 11 6 22 12 NNE 1020,3 20 60 0,0
18.08.2018 15:00:00 26,3 14,1 30,8 23,9 22,8 10 6 24 13 N 1021,0 27 55 0,0
18.08.2018 14:00:00 25,8 16,4 30,4 23,3 22,8 8 4 27 14 N 1021,6 17 60 0,0
18.08.2018 13:00:00 24,0 15,2 29,6 22,8 22,8 11 6 23 13 NNE 1022,0 12 60 0,0
18.08.2018 12:00:00 23,1 15,4 28,2 22,5 22,8 9 5 29 16 N 1022,3 12 60 0,0
18.08.2018 11:00:00 22,1 15,2 24,7 22,4 22,8 10 5 22 12 N 1022,4 15 56 0,0
18.08.2018 10:00:00 20,4 14,3 20,9 22,4 22,8 14 7 21 12 NNW 1022,5 9 52 0,0
18.08.2018 09:00:00 18,8 14,9 18,3 22,5 22,8 9 5 16 8 NNW 1022,1 20 2 0,0
18.08.2018 08:00:00 16,9 14,9 15,4 22,7 22,8 5 3 11 6 N 1021,9 15 34 0,0
18.08.2018 07:00:00 15,5 14,2 14,7 22,9 22,8 3 2 9 5 N 1021,7 10 1 0,0
18.08.2018 06:00:00 16,0 14,9 15,0 23,2 22,8 4 2 9 5 NW 1021,5 12 0 0,0
18.08.2018 05:00:00 16,6 15,3 15,6 23,4 22,8 3 1 10 6 WNW 1021,2 16 0 0,0
18.08.2018 04:00:00 17,0 15,7 15,6 23,6 22,8 4 2 14 8 WNW 1020,9 16 0 0,0
18.08.2018 03:00:00 17,8 16,0 17,0 23,9 22,8 10 5 22 12 NW 1020,4 18 0 0,0
18.08.2018 02:00:00 18,1 16,4 17,4 24,1 22,8 12 6 26 14 NW 1020,0 19 0 0,0
18.08.2018 01:00:00 18,3 17,7 17,9 24,3 22,7 11 6 16 9 NW 1020,1 11 0 0,0
18.08.2018 00:00:00 18,7 17,7 18,0 24,7 22,7 2 1 14 8 S 1020,1 17 0 0,4
17.08.2018 23:00:00 19,3 17,3 18,1 25,0 22,8 9 5 23 12 W 1019,2 11 0 0,8
17.08.2018 22:00:00 18,8 17,3 17,5 25,5 22,8 9 5 40 22 WNW 1018,9 18 0 5,5
17.08.2018 21:00:00 18,7 16,5 16,8 26,1 22,8 14 8 84 45 WSW 1018,4 0,6 0 26,0
17.08.2018 20:00:00 21,3 17,5 19,0 26,7 22,8 22 12 49 26 S 1017,0 0,7 0 19,1
17.08.2018 19:00:00 27,6 15,6 26,8 26,6 22,8 16 8 23 13 WSW 1014,9 4,9 0 0,0
17.08.2018 18:00:00 28,8 16,0 29,4 26,5 22,8 12 6 16 9 WSW 1014,3 45 0 0,0
17.08.2018 17:00:00 29,1 16,0 30,5 26,3 22,8 5 3 16 9 WSW 1014,4 50 0 0,0
17.08.2018 16:00:00 28,1 16,4 29,3 26,0 22,8 12 6 26 14 WNW 1014,5 44 0 0,0
17.08.2018 15:00:00 28,0 16,6 29,8 25,6 22,8 20 11 35 19 WNW 1014,7 45 0 0,0
17.08.2018 14:00:00 29,9 14,8 33,1 25,0 22,8 9 5 23 13 NE 1014,2 45 15 0,0
17.08.2018 13:00:00 29,9 14,8 35,3 24,6 22,8 10 5 27 14 NNE 1014,3 28 60 0,0
17.08.2018 12:00:00 28,2 14,4 33,7 24,2 22,8 10 6 19 11 NE 1014,6 53 60 0,0
17.08.2018 11:00:00 26,7 15,1 31,0 24,1 22,8 4 2 13 7 SSE 1014,8 36 60 0,0
17.08.2018 10:00:00 23,7 14,7 28,2 24,1 22,8 6 3 13 7 S 1014,5 42 60 0,0
17.08.2018 09:00:00 21,4 14,8 23,0 24,3 22,8 5 3 12 6 S 1014,4 34 60 0,0
17.08.2018 08:00:00 18,6 14,7 17,3 24,6 22,8 5 3 11 6 SSW 1014,1 36 60 0,0
17.08.2018 07:00:00 15,9 14,1 13,6 24,9 22,8 2 1 9 5 SW 1013,8 24 8 0,0
17.08.2018 06:00:00 15,5 13,2 13,5 25,2 22,8 6 3 8 5 SSW 1013,4 34 0 0,0
17.08.2018 05:00:00 16,0 13,7 13,8 25,5 22,8 5 3 9 5 SSW 1013,1 37 0 0,0
17.08.2018 04:00:00 16,3 13,6 14,4 25,8 22,8 3 2 5 3 S 1013,0 39 0 0,0
17.08.2018 03:00:00 17,1 14,2 15,2 26,1 22,8 2 1 7 4 SSW 1013,1 39 0 0,0
17.08.2018 02:00:00 17,5 14,4 15,7 26,5 22,8 4 2 6 3 SE 1013,0 43 0 0,0
17.08.2018 01:00:00 18,7 14,8 16,9 26,8 22,9 5 3 7 4 WSW 1013,1 32 0 0,0
17.08.2018 00:00:00 19,4 14,6 16,9 27,1 22,9 0 0 3 2 N 1013,1 46 0 0,0
16.08.2018 23:00:00 20,1 15,1 18,9 27,3 22,9 3 1 9 5 WNW 1012,9 50 0 0,0
16.08.2018 22:00:00 21,7 15,3 20,3 27,5 22,9 2 1 11 6 WSW 1012,7 55 0 0,0
16.08.2018 21:00:00 24,9 14,4 21,6 27,5 22,9 3 2 9 5 NE 1012,3 16 6 0,0
16.08.2018 20:00:00 28,7 13,0 29,5 27,4 22,9 8 4 18 10 N 1012,0 60 55 0,0
16.08.2018 19:00:00 31,4 10,1 33,1 27,0 22,9 5 3 13 7 NE 1012,0 51 60 0,0
16.08.2018 18:00:00 31,5 9,7 36,1 26,5 22,9 9 5 16 9 NE 1012,6 48 60 0,0
16.08.2018 17:00:00 32,0 8,3 37,0 25,9 22,9 6 3 20 11 N 1012,9 50 60 0,0
16.08.2018 16:00:00 31,2 10,0 36,8 25,2 22,9 8 4 29 16 S 1013,5 31 60 0,0
16.08.2018 15:00:00 30,6 12,9 36,4 24,5 22,9 9 5 19 11 S 1014,1 19 60 0,0
16.08.2018 14:00:00 29,4 13,6 35,5 23,9 22,9 7 4 18 10 SSE 1014,7 24 60 0,0
16.08.2018 13:00:00 28,0 14,3 33,6 23,3 22,9 6 3 16 9 SSE 1015,6 39 60 0,0
16.08.2018 12:00:00 25,9 14,4 30,0 23,0 22,9 7 4 15 8 SSE 1016,3 40 60 0,0
16.08.2018 11:00:00 23,5 14,8 28,2 22,8 22,9 5 3 12 7 SSW 1017,0 40 60 0,0
16.08.2018 10:00:00 22,1 14,2 27,0 22,8 22,9 3 2 8 4 SW 1017,4 33 60 0,0
16.08.2018 09:00:00 20,5 14,2 22,2 23,0 22,9 2 1 5 3 S 1017,9 34 60 0,0
16.08.2018 08:00:00 18,2 14,5 15,4 23,2 22,9 0 0 3 2 N 1018,1 25 60 0,0
16.08.2018 07:00:00 13,9 13,1 11,8 23,5 23,0 0 0 4 2 N 1018,3 21 12 0,0
16.08.2018 06:00:00 13,5 12,2 12,0 23,8 23,0 0 0 4 2 N 1018,3 22 0 0,0
16.08.2018 05:00:00 14,0 12,2 12,0 24,1 23,0 2 1 5 3 ENE 1018,5 26 0 0,0
16.08.2018 04:00:00 14,4 12,4 12,5 24,3 23,0 0 0 4 2 N 1018,8 28 0 0,0
16.08.2018 03:00:00 15,1 13,1 13,4 24,7 23,0 3 1 6 4 WSW 1019,0 35 0 0,0
16.08.2018 02:00:00 15,5 13,5 14,3 24,9 23,0 5 3 8 4 WNW 1019,3 39 0 0,0
16.08.2018 01:00:00 16,7 13,8 14,9 25,2 23,0 4 2 6 3 NW 1019,4 39 0 0,0

tt = Température de l'air
td = dewpoint
tt 5cm = Température de l'air 5cm
tt -20cm = Température de l'air -20cm
tt -100cm = Température de l'air -100cm
ff = Vitesse du vent
fx = gusts
dd = Direction du vent
ppp = reduced air pressure
vv = visibility
sd = Ensoleillement
rr = Quantités de précipitations

stations d'obs. à proximité